TimeCDT,TemperatureF,Dew PointF,Humidity,Sea Level PressureIn,VisibilityMPH,Wind Direction,Wind SpeedMPH,Gust SpeedMPH,PrecipitationIn,Events,Conditions,WindDirDegrees,DateUTC
12:52 AM,44.1,27.0,51,30.16,10.0,NW,4.6,-,N/A,,Mostly Cloudy,320,2013-05-10 05:52:00
1:52 AM,46.9,25.0,42,30.14,10.0,ENE,5.8,-,N/A,,Clear,70,2013-05-10 06:52:00
2:52 AM,39.0,25.0,57,30.14,10.0,Calm,Calm,-,N/A,,Clear,0,2013-05-10 07:52:00
3:52 AM,42.1,25.0,51,30.13,10.0,Calm,Calm,-,N/A,,Clear,0,2013-05-10 08:52:00
4:52 AM,34.0,24.1,67,30.13,10.0,Calm,Calm,-,N/A,,Clear,0,2013-05-10 09:52:00
5:52 AM,32.0,24.1,73,30.12,10.0,NE,3.5,-,N/A,,Clear,40,2013-05-10 10:52:00
6:52 AM,35.1,26.1,70,30.12,10.0,Calm,Calm,-,N/A,,Clear,0,2013-05-10 11:52:00
7:52 AM,41.0,32.0,70,30.12,10.0,Calm,Calm,-,N/A,,Clear,0,2013-05-10 12:52:00
8:52 AM,46.0,30.9,56,30.12,10.0,SSE,5.8,-,N/A,,Clear,160,2013-05-10 13:52:00
9:08 AM,48.2,33.8,58,30.09,10.0,South,6.9,-,N/A,,Partly Cloudy,170,2013-05-10 14:08:00
9:52 AM,53.1,35.1,50,30.09,10.0,South,6.9,-,N/A,,Clear,190,2013-05-10 14:52:00
10:52 AM,57.9,39.0,49,30.07,10.0,SSE,9.2,-,N/A,,Clear,150,2013-05-10 15:52:00
11:52 AM,66.0,28.9,25,30.05,10.0,SSW,11.5,-,N/A,,Clear,200,2013-05-10 16:52:00
12:52 PM,71.1,33.1,25,30.02,10.0,SSW,10.4,-,N/A,,Clear,210,2013-05-10 17:52:00
1:52 PM,75.9,36.0,23,29.99,10.0,NW,16.1,19.6,N/A,,Clear,310,2013-05-10 18:52:00
2:52 PM,79.0,36.0,21,29.96,10.0,WNW,15.0,21.9,N/A,,Clear,300,2013-05-10 19:52:00
3:52 PM,75.0,37.0,25,29.95,10.0,NNW,19.6,32.2,N/A,,Mostly Cloudy,330,2013-05-10 20:52:00
4:52 PM,69.1,35.1,29,30.00,10.0,North,21.9,31.1,N/A,,Partly Cloudy,350,2013-05-10 21:52:00
5:52 PM,69.1,30.9,24,30.04,10.0,NNW,21.9,28.8,0.00,,Partly Cloudy,330,2013-05-10 22:52:00
6:52 PM,66.0,28.9,25,30.06,10.0,NNW,19.6,25.3,N/A,,Clear,340,2013-05-10 23:52:00
7:52 PM,63.0,28.9,28,30.08,10.0,North,20.7,28.8,N/A,,Clear,350,2013-05-11 00:52:00
8:52 PM,57.0,28.9,34,30.12,10.0,North,13.8,-,N/A,,Clear,360,2013-05-11 01:52:00
9:52 PM,53.1,28.9,40,30.15,10.0,NNW,9.2,-,N/A,,Clear,330,2013-05-11 02:52:00
10:52 PM,48.9,26.1,41,30.20,10.0,NNW,10.4,-,N/A,,Clear,330,2013-05-11 03:52:00
11:52 PM,48.9,24.1,38,30.22,10.0,NNW,11.5,-,N/A,,Clear,330,2013-05-11 04:52:00